,,PA_Meas_PMT16A,,PR_Meas_QMR101_102,,RH_Meas_QMH101,,SR_Meas_QMS101,,TA_Meas_QMH101,,GenWind,,GenWind,
time,status,PA,status,PR,status,RH,status,SR,status,TA,status,DirAvg,status,SpdAvg,
2014-11-08, 00:00:04,VALID,919.393,VALID,0,VALID,87.1128,VALID,0,VALID,20.4634,VALID,14,VALID,0,
2014-11-08, 00:01:04,VALID,919.424,VALID,0,VALID,87.0289,VALID,0,VALID,20.4634,VALID,334,VALID,0,
2014-11-08, 00:02:04,VALID,919.406,VALID,0,VALID,86.8612,VALID,0,VALID,20.504,VALID,334,VALID,0,
2014-11-08, 00:03:04,VALID,919.375,VALID,0,VALID,86.4267,VALID,0,VALID,20.5024,VALID,349,VALID,0.525781,
2014-11-08, 00:04:04,VALID,919.39,VALID,0,VALID,86.2818,VALID,0,VALID,20.5804,VALID,341,VALID,0,
2014-11-08, 00:05:04,VALID,919.372,VALID,0,VALID,86.1065,VALID,0,VALID,20.5984,VALID,350,VALID,0,
2014-11-08, 00:06:04,VALID,919.346,VALID,0,VALID,86.1675,VALID,0,VALID,20.639,VALID,352,VALID,0,
2014-11-08, 00:07:04,VALID,919.311,VALID,0,VALID,86.2437,VALID,0,VALID,20.639,VALID,356,VALID,0,
2014-11-08, 00:08:04,VALID,919.319,VALID,0,VALID,86.4877,VALID,0,VALID,20.621,VALID,356,VALID,0,
2014-11-08, 00:09:04,VALID,919.251,VALID,0,VALID,86.8383,VALID,0,VALID,20.582,VALID,356,VALID,0,
2014-11-08, 00:10:04,VALID,919.279,VALID,0,VALID,86.7773,VALID,0,VALID,20.5609,VALID,356,VALID,0,
2014-11-08, 00:11:04,VALID,919.277,VALID,0,VALID,87.2347,VALID,0,VALID,20.5414,VALID,356,VALID,0,
2014-11-08, 00:12:04,VALID,919.265,VALID,0,VALID,87.1204,VALID,0,VALID,20.5414,VALID,356,VALID,0,
2014-11-08, 00:13:04,VALID,919.226,VALID,0,VALID,87.0137,VALID,0,VALID,20.5219,VALID,356,VALID,0,
2014-11-08, 00:14:04,VALID,919.232,VALID,0,VALID,87.3339,VALID,0,VALID,20.5219,VALID,356,VALID,0,
2014-11-08, 00:15:04,VALID,919.236,VALID,0,VALID,87.3948,VALID,0,VALID,20.5024,VALID,357,VALID,0,
2014-11-08, 00:16:04,VALID,919.222,VALID,0,VALID,87.2805,VALID,0,VALID,20.4634,VALID,356,VALID,0,
2014-11-08, 00:17:04,VALID,919.213,VALID,0,VALID,87.1051,VALID,0,VALID,20.4845,VALID,356,VALID,0,
2014-11-08, 00:18:04,VALID,919.203,VALID,0,VALID,87.4634,VALID,0,VALID,20.4634,VALID,356,VALID,0,
2014-11-08, 00:19:04,VALID,919.182,VALID,0,VALID,87.5626,VALID,0,VALID,20.4439,VALID,356,VALID,0,
2014-11-08, 00:20:04,VALID,919.156,VALID,0,VALID,87.9971,VALID,0,VALID,20.4634,VALID,356,VALID,0,
2014-11-08, 00:21:04,VALID,919.199,VALID,0,VALID,87.9437,VALID,0,VALID,20.465,VALID,356,VALID,0,
2014-11-08, 00:22:04,VALID,919.16,VALID,0,VALID,88.1496,VALID,0,VALID,20.4829,VALID,356,VALID,0,
2014-11-08, 00:23:04,VALID,919.138,VALID,0,VALID,88.3859,VALID,0,VALID,20.4634,VALID,356,VALID,0,
2014-11-08, 00:24:04,VALID,919.129,VALID,0,VALID,88.6146,VALID,0,VALID,20.4049,VALID,356,VALID,0,
2014-11-08, 00:25:04,VALID,919.128,VALID,0,VALID,88.3478,VALID,0,VALID,20.3479,VALID,357,VALID,0,
2014-11-08, 00:26:04,VALID,919.073,VALID,0,VALID,88.3173,VALID,0,VALID,20.3269,VALID,356,VALID,0,
2014-11-08, 00:27:04,VALID,919.08,VALID,0,VALID,88.7213,VALID,0,VALID,20.3284,VALID,356,VALID,0,
2014-11-08, 00:28:04,VALID,919.059,VALID,0,VALID,88.5917,VALID,0,VALID,20.2879,VALID,356,VALID,0,
2014-11-08, 00:29:04,VALID,919.036,VALID,0,VALID,88.5612,VALID,0,VALID,20.2684,VALID,355,VALID,0,
2014-11-08, 00:30:04,VALID,919.035,VALID,0,VALID,87.6235,VALID,0,VALID,20.3479,VALID,354,VALID,0,
2014-11-08, 00:31:04,VALID,919.021,VALID,0,VALID,87.5702,VALID,0,VALID,20.4049,VALID,354,VALID,0,
2014-11-08, 00:32:04,VALID,918.983,VALID,0,VALID,87.8675,VALID,0,VALID,20.4634,VALID,354,VALID,0,
2014-11-08, 00:33:04,VALID,918.995,VALID,0,VALID,87.6693,VALID,0,VALID,20.4634,VALID,354,VALID,0,
2014-11-08, 00:34:04,VALID,918.991,VALID,0,VALID,87.0289,VALID,0,VALID,20.4634,VALID,354,VALID,0,
2014-11-08, 00:35:04,VALID,918.972,VALID,0,VALID,87.1814,VALID,0,VALID,20.4829,VALID,354,VALID,0,
2014-11-08, 00:36:04,VALID,918.955,VALID,0,VALID,87.067,VALID,0,VALID,20.504,VALID,354,VALID,0,
2014-11-08, 00:37:04,VALID,918.942,VALID,0,VALID,87.4787,VALID,0,VALID,20.504,VALID,354,VALID,0,
2014-11-08, 00:38:04,VALID,918.953,VALID,0,VALID,87.6845,VALID,0,VALID,20.4439,VALID,354,VALID,0,
2014-11-08, 00:39:04,VALID,918.939,VALID,0,VALID,87.311,VALID,0,VALID,20.4244,VALID,354,VALID,0,
2014-11-08, 00:40:04,VALID,918.916,VALID,0,VALID,87.2043,VALID,0,VALID,20.4259,VALID,354,VALID,0,
2014-11-08, 00:41:04,VALID,918.907,VALID,0,VALID,87.2652,VALID,0,VALID,20.4049,VALID,354,VALID,0,
2014-11-08, 00:42:04,VALID,918.911,VALID,0,VALID,87.6769,VALID,0,VALID,20.3659,VALID,354,VALID,0,
2014-11-08, 00:43:04,VALID,918.907,VALID,0,VALID,88.0428,VALID,0,VALID,20.3269,VALID,354,VALID,0,
2014-11-08, 00:44:04,VALID,918.874,VALID,0,VALID,88.363,VALID,0,VALID,20.2684,VALID,356,VALID,0,
2014-11-08, 00:45:04,VALID,918.859,VALID,0,VALID,88.607,VALID,0,VALID,20.2293,VALID,356,VALID,0,
2014-11-08, 00:46:04,VALID,918.797,VALID,0,VALID,88.668,VALID,0,VALID,20.1903,VALID,356,VALID,0,
2014-11-08, 00:47:04,VALID,918.8,VALID,0,VALID,88.668,VALID,0,VALID,20.1708,VALID,356,VALID,0,
2014-11-08, 00:48:04,VALID,918.784,VALID,0,VALID,88.607,VALID,0,VALID,20.1708,VALID,356,VALID,0,
2014-11-08, 00:49:04,VALID,918.769,VALID,0,VALID,88.7061,VALID,0,VALID,20.1903,VALID,356,VALID,0,
2014-11-08, 00:50:04,VALID,918.726,VALID,0,VALID,88.7671,VALID,0,VALID,20.2098,VALID,356,VALID,0,
2014-11-08, 00:51:04,VALID,918.722,VALID,0,VALID,88.828,VALID,0,VALID,20.2098,VALID,356,VALID,0,
2014-11-08, 00:52:04,VALID,918.699,VALID,0,VALID,88.9119,VALID,0,VALID,20.1919,VALID,356,VALID,0,
2014-11-08, 00:53:04,VALID,918.719,VALID,0,VALID,89.1177,VALID,0,VALID,20.1513,VALID,356,VALID,0,
2014-11-08, 00:54:04,VALID,918.659,VALID,0,VALID,89.4684,VALID,0,VALID,20.1318,VALID,356,VALID,0,
2014-11-08, 00:55:04,VALID,918.661,VALID,0,VALID,89.8801,VALID,0,VALID,20.0928,VALID,357,VALID,0,
2014-11-08, 00:56:04,VALID,918.648,VALID,0,VALID,90.2994,VALID,0,VALID,20.0538,VALID,31,VALID,0,
2014-11-08, 00:57:04,VALID,918.678,VALID,0,VALID,90.7491,VALID,0,VALID,19.9953,VALID,83,VALID,0,
2014-11-08, 00:58:04,VALID,918.671,VALID,0,VALID,91.1303,VALID,0,VALID,19.9368,VALID,132,VALID,0,
2014-11-08, 00:59:04,VALID,918.669,VALID,0,VALID,91.3895,VALID,0,VALID,19.8783,VALID,132,VALID,0,
2014-11-08, 01:00:04,VALID,918.66,VALID,0,VALID,91.6335,VALID,0,VALID,19.8198,VALID,131,VALID,0,
2014-11-08, 01:01:04,VALID,918.643,VALID,0,VALID,91.7554,VALID,0,VALID,19.7613,VALID,131,VALID,0,
2014-11-08, 01:02:04,VALID,918.674,VALID,0,VALID,91.9079,VALID,0,VALID,19.7418,VALID,131,VALID,0,
2014-11-08, 01:03:04,VALID,918.622,VALID,0,VALID,92.129,VALID,0,VALID,19.7628,VALID,130,VALID,0,
2014-11-08, 01:04:04,VALID,918.606,VALID,0,VALID,92.2662,VALID,0,VALID,19.7418,VALID,130,VALID,0,
2014-11-08, 01:05:04,VALID,918.573,VALID,0,VALID,92.3272,VALID,0,VALID,19.7223,VALID,130,VALID,0,
2014-11-08, 01:06:04,VALID,918.54,VALID,0,VALID,92.3196,VALID,0,VALID,19.7223,VALID,130,VALID,0,
2014-11-08, 01:07:04,VALID,918.474,VALID,0,VALID,92.4415,VALID,0,VALID,19.7418,VALID,130,VALID,0,
2014-11-08, 01:08:04,VALID,918.434,VALID,0,VALID,92.2814,VALID,0,VALID,19.7418,VALID,131,VALID,0,
2014-11-08, 01:09:04,VALID,918.416,VALID,0,VALID,92.068,VALID,0,VALID,19.7628,VALID,131,VALID,0.0316406,
2014-11-08, 01:10:04,VALID,918.383,VALID,0,VALID,91.8088,VALID,0,VALID,19.7823,VALID,131,VALID,0,
2014-11-08, 01:11:04,VALID,918.366,VALID,0,VALID,91.5115,VALID,0,VALID,19.8018,VALID,130,VALID,0,
2014-11-08, 01:12:04,VALID,918.342,VALID,0,VALID,91.3361,VALID,0,VALID,19.8003,VALID,130,VALID,0,
2014-11-08, 01:13:04,VALID,918.328,VALID,0,VALID,91.2675,VALID,0,VALID,19.8003,VALID,132,VALID,0,
2014-11-08, 01:14:04,VALID,918.296,VALID,0,VALID,91.2142,VALID,0,VALID,19.8213,VALID,136,VALID,0.127734,
2014-11-08, 01:15:04,VALID,918.26,VALID,0,VALID,91.3057,VALID,0,VALID,19.8213,VALID,136,VALID,0.00234375,
2014-11-08, 01:16:04,VALID,918.25,VALID,0,VALID,91.4429,VALID,0,VALID,19.8408,VALID,136,VALID,0,
2014-11-08, 01:17:04,VALID,918.252,VALID,0,VALID,91.7554,VALID,0,VALID,19.8798,VALID,136,VALID,0,
2014-11-08, 01:18:04,VALID,918.249,VALID,0,VALID,91.6868,VALID,0,VALID,19.8393,VALID,136,VALID,0,
2014-11-08, 01:19:04,VALID,918.216,VALID,0,VALID,91.4048,VALID,0,VALID,19.8198,VALID,136,VALID,0,
2014-11-08, 01:20:04,VALID,918.251,VALID,0,VALID,91.3209,VALID,0,VALID,19.8198,VALID,135,VALID,0,
2014-11-08, 01:21:04,VALID,918.24,VALID,0,VALID,91.4352,VALID,0,VALID,19.8603,VALID,134,VALID,0,
2014-11-08, 01:22:04,VALID,918.219,VALID,0,VALID,91.6945,VALID,0,VALID,19.8213,VALID,134,VALID,0,
2014-11-08, 01:23:04,VALID,918.219,VALID,0,VALID,91.8393,VALID,0,VALID,19.8003,VALID,134,VALID,0,
2014-11-08, 01:24:04,VALID,918.26,VALID,0,VALID,91.9841,VALID,0,VALID,19.7808,VALID,134,VALID,0,
2014-11-08, 01:25:04,VALID,918.256,VALID,0,VALID,91.9841,VALID,0,VALID,19.7418,VALID,134,VALID,0,
2014-11-08, 01:26:04,VALID,918.238,VALID,0,VALID,91.6792,VALID,0,VALID,19.7628,VALID,134,VALID,0,
2014-11-08, 01:27:04,VALID,918.256,VALID,0,VALID,91.3057,VALID,0,VALID,19.8018,VALID,134,VALID,0,
2014-11-08, 01:28:04,VALID,918.253,VALID,0,VALID,90.9169,VALID,0,VALID,19.8603,VALID,134,VALID,0,
2014-11-08, 01:29:04,VALID,918.221,VALID,0,VALID,90.6424,VALID,0,VALID,19.8783,VALID,134,VALID,0,
2014-11-08, 01:30:04,VALID,918.209,VALID,0,VALID,90.4823,VALID,0,VALID,19.8978,VALID,134,VALID,0,
2014-11-08, 01:31:04,VALID,918.219,VALID,0,VALID,90.4518,VALID,0,VALID,19.9188,VALID,134,VALID,0,
2014-11-08, 01:32:04,VALID,918.21,VALID,0,VALID,90.9245,VALID,0,VALID,19.9173,VALID,134,VALID,0,
2014-11-08, 01:33:04,VALID,918.22,VALID,0,VALID,90.8559,VALID,0,VALID,19.9773,VALID,134,VALID,0,
2014-11-08, 01:34:04,VALID,918.24,VALID,0,VALID,90.6958,VALID,0,VALID,19.9563,VALID,134,VALID,0,
2014-11-08, 01:35:04,VALID,918.203,VALID,0,VALID,90.8254,VALID,0,VALID,19.9758,VALID,134,VALID,0,
2014-11-08, 01:36:04,VALID,918.196,VALID,0,VALID,90.8254,VALID,0,VALID,19.9968,VALID,134,VALID,0,
2014-11-08, 01:37:04,VALID,918.227,VALID,0,VALID,90.9169,VALID,0,VALID,19.9758,VALID,134,VALID,0,
2014-11-08, 01:38:04,VALID,918.22,VALID,0,VALID,91.077,VALID,0,VALID,19.9758,VALID,134,VALID,0,
2014-11-08, 01:39:04,VALID,918.226,VALID,0,VALID,91.298,VALID,0,VALID,19.9758,VALID,134,VALID,0,
2014-11-08, 01:40:04,VALID,918.255,VALID,0,VALID,91.3209,VALID,0,VALID,19.9773,VALID,134,VALID,0,
2014-11-08, 01:41:04,VALID,918.251,VALID,0,VALID,91.5267,VALID,0,VALID,19.9773,VALID,134,VALID,0,
2014-11-08, 01:42:04,VALID,918.219,VALID,0,VALID,91.1837,VALID,0,VALID,19.9383,VALID,134,VALID,0,
2014-11-08, 01:43:04,VALID,918.19,VALID,0,VALID,91.0312,VALID,0,VALID,19.8978,VALID,134,VALID,0,
2014-11-08, 01:44:04,VALID,918.157,VALID,0,VALID,91.1761,VALID,0,VALID,19.8978,VALID,134,VALID,0,
2014-11-08, 01:45:04,VALID,918.157,VALID,0,VALID,91.1913,VALID,0,VALID,19.8783,VALID,134,VALID,0,
2014-11-08, 01:46:04,VALID,918.128,VALID,0,VALID,91.1608,VALID,0,VALID,19.8798,VALID,134,VALID,0,
2014-11-08, 01:47:04,VALID,918.094,VALID,0,VALID,91.3514,VALID,0,VALID,19.8588,VALID,134,VALID,0,
2014-11-08, 01:48:04,VALID,918.072,VALID,0,VALID,91.4886,VALID,0,VALID,19.8393,VALID,133,VALID,0,
2014-11-08, 01:49:04,VALID,918.087,VALID,0,VALID,91.6258,VALID,0,VALID,19.8198,VALID,134,VALID,0,
2014-11-08, 01:50:04,VALID,918.071,VALID,0,VALID,91.6182,VALID,0,VALID,19.8198,VALID,134,VALID,0,
2014-11-08, 06:37:04,VALID,918.311,VALID,0,VALID,97.6865,VALID,56.6215,VALID,19.5663,VALID,120,VALID,0,
2014-11-08, 06:38:04,VALID,918.316,VALID,0,VALID,97.6636,VALID,58.5554,VALID,19.6458,VALID,120,VALID,0,
2014-11-08, 06:39:04,VALID,918.329,VALID,0,VALID,97.6941,VALID,61.3489,VALID,19.6248,VALID,120,VALID,0,
2014-11-08, 06:40:04,VALID,918.316,VALID,0,VALID,97.6483,VALID,63.9275,VALID,19.6848,VALID,120,VALID,0,
2014-11-08, 06:41:04,VALID,918.333,VALID,0,VALID,97.6407,VALID,65.8614,VALID,19.7238,VALID,120,VALID,0,
2014-11-08, 06:42:04,VALID,918.337,VALID,0,VALID,97.6178,VALID,68.1177,VALID,19.7223,VALID,120,VALID,0,
2014-11-08, 06:43:04,VALID,918.332,VALID,0,VALID,97.595,VALID,70.9112,VALID,19.8018,VALID,120,VALID,0,
2014-11-08, 06:44:04,VALID,918.349,VALID,0,VALID,97.595,VALID,74.2418,VALID,19.8213,VALID,120,VALID,0,
2014-11-08, 06:45:04,VALID,918.336,VALID,0,VALID,97.5721,VALID,80.4734,VALID,19.7808,VALID,124,VALID,0,
2014-11-08, 06:46:04,VALID,918.345,VALID,0,VALID,97.5721,VALID,86.2752,VALID,19.8408,VALID,139,VALID,0,
2014-11-08, 06:47:04,VALID,918.376,VALID,0,VALID,97.534,VALID,90.8952,VALID,19.8393,VALID,139,VALID,0,
2014-11-08, 06:48:04,VALID,918.391,VALID,0,VALID,97.4806,VALID,95.1929,VALID,19.9173,VALID,139,VALID,0,
2014-11-08, 06:49:04,VALID,918.409,VALID,0,VALID,97.4577,VALID,98.3087,VALID,19.9758,VALID,139,VALID,0,
2014-11-08, 06:50:04,VALID,918.444,VALID,0,VALID,97.4196,VALID,100.35,VALID,20.0358,VALID,139,VALID,0,
2014-11-08, 06:51:04,VALID,918.446,VALID,0,VALID,97.3739,VALID,102.177,VALID,20.1123,VALID,139,VALID,0,
2014-11-08, 06:52:04,VALID,918.482,VALID,0,VALID,97.3205,VALID,103.036,VALID,20.1903,VALID,140,VALID,0,
2014-11-08, 06:53:04,VALID,918.451,VALID,0,VALID,97.2214,VALID,102.499,VALID,20.2489,VALID,140,VALID,0,
2014-11-08, 06:54:04,VALID,918.49,VALID,0,VALID,97.1299,VALID,101.21,VALID,20.3284,VALID,140,VALID,0,
2014-11-08, 06:55:04,VALID,918.466,VALID,0,VALID,96.9546,VALID,99.0607,VALID,20.3269,VALID,140,VALID,0,
2014-11-08, 06:56:04,VALID,918.514,VALID,0,VALID,96.7107,VALID,99.9203,VALID,20.3464,VALID,140,VALID,0,
2014-11-08, 06:57:04,VALID,918.512,VALID,0,VALID,96.3676,VALID,102.391,VALID,20.3854,VALID,140,VALID,0,
2014-11-08, 06:58:04,VALID,918.476,VALID,0,VALID,95.9788,VALID,105.292,VALID,20.4439,VALID,140,VALID,0,
2014-11-08, 06:59:04,VALID,918.499,VALID,0,VALID,95.5443,VALID,108.301,VALID,20.4634,VALID,140,VALID,0,
2014-11-08, 07:00:04,VALID,918.506,VALID,0,VALID,95.1555,VALID,110.987,VALID,20.5024,VALID,140,VALID,0,
2014-11-08, 07:01:04,VALID,918.525,VALID,0,VALID,94.7591,VALID,113.243,VALID,20.5414,VALID,140,VALID,0,
2014-11-08, 07:02:04,VALID,918.576,VALID,0,VALID,94.0043,VALID,115.607,VALID,20.5999,VALID,140,VALID,0,
2014-11-08, 07:03:04,VALID,918.573,VALID,0,VALID,92.9828,VALID,118.078,VALID,20.6585,VALID,140,VALID,0,
2014-11-08, 07:04:04,VALID,918.544,VALID,0,VALID,92.0832,VALID,120.656,VALID,20.6975,VALID,140,VALID,0,
2014-11-08, 07:05:04,VALID,918.584,VALID,0,VALID,91.4886,VALID,123.772,VALID,20.7755,VALID,140,VALID,0,
2014-11-08, 07:06:04,VALID,918.604,VALID,0,VALID,91.1761,VALID,129.144,VALID,20.795,VALID,140,VALID,0,
2014-11-08, 07:07:04,VALID,918.604,VALID,0,VALID,91.0312,VALID,131.401,VALID,20.873,VALID,140,VALID,0,
2014-11-08, 07:08:04,VALID,918.611,VALID,0,VALID,91.1456,VALID,129.359,VALID,20.9901,VALID,140,VALID,0,
2014-11-08, 07:09:04,VALID,918.643,VALID,0,VALID,90.6882,VALID,130.004,VALID,21.0892,VALID,140,VALID,0,
2014-11-08, 07:10:04,VALID,918.673,VALID,0,VALID,90.0325,VALID,131.293,VALID,21.1657,VALID,140,VALID,0,
2014-11-08, 07:11:04,VALID,918.677,VALID,0,VALID,89.842,VALID,132.153,VALID,21.2047,VALID,140,VALID,0,
2014-11-08, 07:12:04,VALID,918.695,VALID,0,VALID,89.255,VALID,134.194,VALID,21.3217,VALID,140,VALID,0,
2014-11-08, 07:13:04,VALID,918.707,VALID,0,VALID,88.2563,VALID,137.954,VALID,21.4193,VALID,140,VALID,0,
2014-11-08, 07:14:04,VALID,918.692,VALID,0,VALID,88.1191,VALID,142.36,VALID,21.5168,VALID,140,VALID,0,
2014-11-08, 07:15:04,VALID,918.692,VALID,0,VALID,87.6388,VALID,146.12,VALID,21.6144,VALID,140,VALID,0,
2014-11-08, 07:16:04,VALID,918.72,VALID,0,VALID,87.0594,VALID,151.062,VALID,21.751,VALID,140,VALID,0,
2014-11-08, 07:17:04,VALID,918.766,VALID,0,VALID,85.2298,VALID,156.434,VALID,21.8485,VALID,140,VALID,0,
2014-11-08, 07:18:04,VALID,918.745,VALID,0,VALID,84.6275,VALID,157.616,VALID,21.9266,VALID,140,VALID,0,
2014-11-08, 07:19:04,VALID,918.747,VALID,0,VALID,84.963,VALID,160.839,VALID,22.0258,VALID,140,VALID,0,
2014-11-08, 07:20:04,VALID,918.751,VALID,0,VALID,83.5221,VALID,160.517,VALID,22.042,VALID,134,VALID,0,
2014-11-08, 07:21:04,VALID,918.762,VALID,0,VALID,81.8374,VALID,163.955,VALID,22.1217,VALID,134,VALID,0,
2014-11-08, 07:22:04,VALID,918.747,VALID,0,VALID,80.5414,VALID,166.319,VALID,22.1591,VALID,131,VALID,0,
2014-11-08, 07:23:04,VALID,918.756,VALID,0,VALID,79.5351,VALID,166.319,VALID,22.2388,VALID,131,VALID,0,
2014-11-08, 07:24:04,VALID,918.783,VALID,0,VALID,80.9531,VALID,180.501,VALID,22.2762,VALID,131,VALID,0,
2014-11-08, 07:25:04,VALID,918.779,VALID,0,VALID,80.61,VALID,197.584,VALID,22.3737,VALID,131,VALID,0,
2014-11-08, 07:26:04,VALID,918.81,VALID,0,VALID,78.4907,VALID,205.75,VALID,22.4908,VALID,131,VALID,0,
2014-11-08, 07:27:04,VALID,918.831,VALID,0,VALID,78.6584,VALID,214.99,VALID,22.5316,VALID,132,VALID,0,
2014-11-08, 07:28:04,VALID,918.823,VALID,0,VALID,79.1844,VALID,228.957,VALID,22.6487,VALID,132,VALID,0,
2014-11-08, 07:29:04,VALID,918.858,VALID,0,VALID,80.2441,VALID,246.255,VALID,22.725,VALID,131,VALID,0,
2014-11-08, 07:30:04,VALID,918.89,VALID,0,VALID,77.553,VALID,262.049,VALID,22.8226,VALID,46,VALID,0,
2014-11-08, 07:31:04,VALID,918.92,VALID,0,VALID,78.5517,VALID,276.446,VALID,22.9202,VALID,46,VALID,0,
2014-11-08, 07:32:04,VALID,918.914,VALID,0,VALID,80.1526,VALID,285.364,VALID,22.9787,VALID,46,VALID,0,
2014-11-08, 07:33:04,VALID,918.961,VALID,0,VALID,79.8705,VALID,299.976,VALID,23.0373,VALID,46,VALID,0,
2014-11-08, 07:34:04,VALID,918.99,VALID,0,VALID,79.1844,VALID,311.472,VALID,23.0746,VALID,46,VALID,0,
2014-11-08, 07:35:04,VALID,919.007,VALID,0,VALID,78.2772,VALID,316.092,VALID,23.2307,VALID,46,VALID,0,
2014-11-08, 07:36:04,VALID,919.032,VALID,0,VALID,78.4831,VALID,235.833,VALID,23.3869,VALID,44,VALID,0,
2014-11-08, 07:37:04,VALID,919.046,VALID,0,VALID,76.3714,VALID,302.232,VALID,23.4685,VALID,44,VALID,0,
2014-11-08, 07:38:04,VALID,919.036,VALID,0,VALID,73.9395,VALID,337.043,VALID,23.4472,VALID,21,VALID,0.735937,
2014-11-08, 07:39:04,VALID,919.051,VALID,0,VALID,75.5785,VALID,149.021,VALID,23.3106,VALID,23,VALID,0,
2014-11-08, 07:40:04,VALID,919.054,VALID,0,VALID,73.0476,VALID,354.233,VALID,23.0959,VALID,7,VALID,0,
2014-11-08, 07:41:04,VALID,919.057,VALID,0,VALID,76.4781,VALID,359.283,VALID,23.0373,VALID,9,VALID,0.360547,
2014-11-08, 07:42:04,VALID,919.099,VALID,0,VALID,76.7678,VALID,254.098,VALID,22.9983,VALID,23,VALID,0.120312,
2014-11-08, 07:43:04,VALID,919.098,VALID,0,VALID,75.3727,VALID,316.844,VALID,23.0178,VALID,33,VALID,0.0160156,
2014-11-08, 07:44:04,VALID,919.113,VALID,0,VALID,76.6458,VALID,282.463,VALID,22.977,VALID,13,VALID,0,
2014-11-08, 07:45:04,VALID,919.127,VALID,0,VALID,76.3256,VALID,365.085,VALID,23.0551,VALID,36,VALID,0,
2014-11-08, 07:46:04,VALID,919.18,VALID,0,VALID,74.1606,VALID,358.639,VALID,23.0941,VALID,3,VALID,0,
2014-11-08, 07:47:04,VALID,919.146,VALID,0,VALID,74.1682,VALID,363.473,VALID,23.1349,VALID,12,VALID,0,
2014-11-08, 07:48:04,VALID,919.176,VALID,0,VALID,74.1301,VALID,375.292,VALID,23.3088,VALID,17,VALID,0,
2014-11-08, 07:49:04,VALID,919.18,VALID,0,VALID,73.8633,VALID,374.54,VALID,23.5626,VALID,17,VALID,0,
2014-11-08, 07:50:04,VALID,919.212,VALID,0,VALID,71.8964,VALID,356.275,VALID,23.7187,VALID,334,VALID,0,
2014-11-08, 07:51:04,VALID,919.183,VALID,0,VALID,71.3475,VALID,345.746,VALID,23.7382,VALID,334,VALID,0,
2014-11-08, 07:52:04,VALID,919.192,VALID,0,VALID,72.5063,VALID,320.067,VALID,23.6992,VALID,334,VALID,0,
2014-11-08, 07:53:04,VALID,919.214,VALID,0,VALID,72.331,VALID,379.912,VALID,23.6406,VALID,334,VALID,0,
2014-11-08, 07:54:04,VALID,919.232,VALID,0,VALID,73.6727,VALID,383.887,VALID,23.5235,VALID,334,VALID,0,
2014-11-08, 07:55:04,VALID,919.245,VALID,0,VALID,73.8252,VALID,387.003,VALID,23.6779,VALID,328,VALID,0.0117188,
2014-11-08, 07:56:04,VALID,919.26,VALID,0,VALID,76.0207,VALID,401.078,VALID,23.6779,VALID,359,VALID,0.858984,
2014-11-08, 07:57:04,VALID,919.284,VALID,0,VALID,73.9014,VALID,395.706,VALID,23.6974,VALID,353,VALID,0.667188,
2014-11-08, 07:58:04,VALID,919.292,VALID,0,VALID,75.0525,VALID,291.918,VALID,23.6211,VALID,11,VALID,1.34102,
2014-11-08, 07:59:04,VALID,919.325,VALID,0,VALID,74.3893,VALID,428.475,VALID,23.543,VALID,7,VALID,1.41758,
2014-11-08, 08:00:04,VALID,919.378,VALID,0,VALID,75.6853,VALID,440.079,VALID,23.543,VALID,343,VALID,0.423828,
2014-11-08, 08:01:04,VALID,919.411,VALID,0,VALID,76.2418,VALID,446.955,VALID,23.5235,VALID,8,VALID,0.192969,
2014-11-08, 08:02:04,VALID,919.428,VALID,0,VALID,76.318,VALID,161.269,VALID,23.5626,VALID,322,VALID,0.0238281,
2014-11-08, 08:03:04,VALID,919.427,VALID,0,VALID,76.3333,VALID,261.082,VALID,23.5626,VALID,9,VALID,0.560547,
2014-11-08, 08:04:04,VALID,919.405,VALID,0,VALID,76.44,VALID,345.531,VALID,23.5821,VALID,9,VALID,0.583984,
2014-11-08, 08:05:04,VALID,919.442,VALID,0,VALID,75.5023,VALID,396.995,VALID,23.5022,VALID,353,VALID,0.611328,
2014-11-08, 08:06:04,VALID,919.446,VALID,0,VALID,77.4158,VALID,416.979,VALID,23.543,VALID,7,VALID,0.751953,
2014-11-08, 08:07:04,VALID,919.454,VALID,0,VALID,75.4261,VALID,482.303,VALID,23.5998,VALID,328,VALID,1.00703,
2014-11-08, 08:08:04,VALID,919.5,VALID,0,VALID,77.1413,VALID,483.27,VALID,23.504,VALID,328,VALID,0.658203,
2014-11-08, 08:09:04,VALID,919.488,VALID,0,VALID,76.5848,VALID,447.922,VALID,23.4827,VALID,328,VALID,0.0417969,
2014-11-08, 08:10:04,VALID,919.52,VALID,0,VALID,77.3319,VALID,286.653,VALID,23.5412,VALID,328,VALID,0,
2014-11-08, 08:11:04,VALID,919.538,VALID,0,VALID,75.4261,VALID,391.301,VALID,23.8145,VALID,329,VALID,0,
2014-11-08, 08:12:04,VALID,919.534,VALID,0,VALID,74.9611,VALID,294.819,VALID,23.9512,VALID,322,VALID,0,
2014-11-08, 08:13:04,VALID,919.562,VALID,0,VALID,73.4059,VALID,335.646,VALID,23.9902,VALID,11,VALID,0.317969,
2014-11-08, 08:14:04,VALID,919.594,VALID,0,VALID,73.1238,VALID,414.078,VALID,23.9902,VALID,8,VALID,0,
2014-11-08, 08:15:04,VALID,919.578,VALID,0,VALID,71.8202,VALID,235.404,VALID,23.9316,VALID,8,VALID,1.24492,
2014-11-08, 08:16:04,VALID,919.607,VALID,0,VALID,72.7655,VALID,271.181,VALID,23.6388,VALID,12,VALID,1.42891,
2014-11-08, 08:17:04,VALID,919.601,VALID,0,VALID,75.3727,VALID,329.629,VALID,23.5217,VALID,12,VALID,0.255859,
2014-11-08, 08:18:04,VALID,919.611,VALID,0,VALID,74.4503,VALID,243.354,VALID,23.5803,VALID,10,VALID,0,
2014-11-08, 08:19:04,VALID,919.628,VALID,0,VALID,74.9001,VALID,237.338,VALID,23.6193,VALID,12,VALID,0.0375,
2014-11-08, 08:20:04,VALID,919.674,VALID,0,VALID,73.566,VALID,215.742,VALID,23.6193,VALID,335,VALID,0.0453125,
2014-11-08, 08:21:04,VALID,919.639,VALID,0,VALID,74.435,VALID,197.907,VALID,23.4224,VALID,338,VALID,0.240234,
2014-11-08, 08:22:04,VALID,919.618,VALID,0,VALID,75.6319,VALID,195.113,VALID,23.2485,VALID,338,VALID,0,
2014-11-08, 08:23:04,VALID,919.627,VALID,0,VALID,75.6777,VALID,247.867,VALID,23.0941,VALID,330,VALID,0,
2014-11-08, 08:24:04,VALID,919.631,VALID,0,VALID,76.4857,VALID,375.292,VALID,22.9948,VALID,343,VALID,0,
2014-11-08, 08:25:04,VALID,919.601,VALID,0,VALID,76.4705,VALID,260.545,VALID,22.9948,VALID,337,VALID,0,
2014-11-08, 08:26:04,VALID,919.616,VALID,0,VALID,76.9279,VALID,448.459,VALID,23.1687,VALID,360,VALID,0,
2014-11-08, 08:27:04,VALID,919.592,VALID,0,VALID,76.3104,VALID,497.667,VALID,23.2467,VALID,357,VALID,1.0543,
2014-11-08, 08:28:04,VALID,919.615,VALID,0,VALID,75.3803,VALID,284.289,VALID,23.2077,VALID,354,VALID,1.61445,
2014-11-08, 08:29:04,VALID,919.611,VALID,0,VALID,76.5238,VALID,358.101,VALID,23.1687,VALID,7,VALID,0.312109,
2014-11-08, 08:30:04,VALID,919.635,VALID,0,VALID,77.6826,VALID,366.589,VALID,23.2094,VALID,14,VALID,0.524219,
2014-11-08, 08:31:04,VALID,919.619,VALID,0,VALID,78.2391,VALID,283.537,VALID,23.229,VALID,38,VALID,0.0199219,
2014-11-08, 08:32:04,VALID,919.665,VALID,0,VALID,77.3243,VALID,509.701,VALID,23.2857,VALID,29,VALID,0,
2014-11-08, 08:33:04,VALID,919.691,VALID,0,VALID,77.3396,VALID,340.159,VALID,23.3265,VALID,349,VALID,1.89727,
2014-11-08, 08:34:04,VALID,919.692,VALID,0,VALID,75.9292,VALID,252.487,VALID,23.2467,VALID,358,VALID,0.769531,
2014-11-08, 08:35:04,VALID,919.724,VALID,0,VALID,78.4678,VALID,456.088,VALID,23.229,VALID,356,VALID,0,
2014-11-08, 08:36:04,VALID,919.727,VALID,0,VALID,78.2696,VALID,502.825,VALID,23.1899,VALID,357,VALID,0.814453,